Tracking 30995 objects as of 5-Jul-2025
HD Live streaming from Space Station
objects crossing your sky now

DELTA 1 DEB

Track DELTA 1 DEB now!
10-day predictions


NORAD ID: 10763
Int'l Code: 1976-077BL
Perigee: 1,503.7 km
Apogee: 1,576.3 km
Inclination: 102.2 °
Period: 116.7 minutes
Semi major axis: 7911 km
RCS: 0.0794 m2 (small)
Launch date: July 29, 1976
Source: United States (US)
Launch site: AIR FORCE WESTERN TEST RANGE (AFWTR)

Note: This is SATELLITE DEBRIS
Your satellite tracking list
FENGYUN 1C DEB
Track 1 satellite(s)




NASA's NSSDC Master Catalog

Two Line Element Set (TLE):
1 10763U 76077BL  25186.37225334 -.00000011  00000-0  27760-3 0  9993
2 10763 102.1910 153.4871 0045849 299.1847 217.3824 12.33828658203707
Source of the keplerian elements: AFSPC